Location: Springville
(37.3745°N, 89.2676°W)
Time: 23:27:04
(UTC+00:00)

NOAA 12 - Pass Details

Date: 29 October 2020
Orbit: 795 x 815 km, 98.5° (Epoch: 03 December)

Event Time Altitude Azimuth Distance (km) Brightness Sun altitude
Rises 23:21:39 0° 162° (SSE) 3,305 7.2 -4.7°
Reaches altitude 10° 23:23:59 10° 161° (SSE) 2,381 6.5 -5.1°
Maximum altitude 23:29:14 78° 75° (ENE) 831 4.1 -6.1°
Drops below altitude 10° 23:34:34 10° 350° (N) 2,407 6.6 -7.2°
Sets 23:36:55 0° 349° (N) 3,345 7.3 -7.6°
